[Iaude] MPEC X39: 2023 VQ17 [a=29.80,e=0.52,i=15.4,H=10.5]

mpec at marsden.cfa.harvard.edu mpec at marsden.cfa.harvard.edu
Mon Dec 4 16:53:56 EST 2023


M.P.E.C. 2023-X39                              Issued 2023 December 4, 21:52 UT

     The Minor Planet Electronic Circulars contain information on unusual
         minor planets, routine data on comets and natural satellites,
         and occasional editorial announcements.  They are published
    on behalf of Division F of the International Astronomical Union by the
          Minor Planet Center, Smithsonian Astrophysical Observatory,
                          Cambridge, MA 02138, U.S.A.
			  
             Prepared using the Tamkin Foundation Computer Network

                              MPC at CFA.HARVARD.EDU
            URL https://www.minorplanetcenter.net/    ISSN 1523-6714

                                   2023 VQ17                                    


Observations:
     K23V17Q* C2023 11 11.32355203 01 39.742+25 29 20.29         21.96GVEX039V00
     K23V17Q  C2023 11 11.32968703 01 39.648+25 29 20.44         22.30GVEX039V00
     K23V17Q  C2023 11 11.33579603 01 39.565+25 29 19.97         21.90GVEX039V00
     K23V17Q  C2023 11 11.34190803 01 39.511+25 29 19.82         21.93GVEX039V00
     K23V17Q  C2023 11 18.32319803 00 07.667+25 25 19.42         22.23wXEX039F52
     K23V17Q  C2023 11 18.33626503 00 07.485+25 25 18.84         21.80wXEX039F52
     K23V17Q  C2023 11 18.34931803 00 07.310+25 25 18.51         21.89wXEX039F52
     K23V17Q KC2023 11 20.18051 02 59 43.52 +25 24 10.8          22.2 RVEX039291
     K23V17Q KC2023 11 20.20984 02 59 43.13 +25 24 09.3                VEX039291
     K23V17Q KC2023 11 20.23694 02 59 42.74 +25 24 08.1                VEX039291
     K23V17Q KC2023 11 21.16310 02 59 30.84 +25 23 33.5          22.0 GVEX039291
     K23V17Q KC2023 11 21.18408 02 59 30.59 +25 23 32.9          22.0 GVEX039291
     K23V17Q KC2023 11 23.16757402 59 05.180+25 22 17.00         21.93GVEX039I52
     K23V17Q KC2023 11 23.17833202 59 05.010+25 22 16.90         21.81GVEX039I52
     K23V17Q KC2023 11 23.18908802 59 04.880+25 22 16.30         21.48GVEX039I52
     K23V17Q KC2023 12 03.27873 02 57 01.56 +25 15 28.9          22.0 RVEX039291
     K23V17Q KC2023 12 03.32396 02 57 01.04 +25 15 27.0          21.8 RVEX039291
     K23V17Q KC2023 12 03.36311 02 57 00.58 +25 15 24.9          21.8 RVEX039291
     K23V17Q KC2023 12 04.08357 02 56 52.32 +25 14 55.0          22.1 GVEX039291
     K23V17Q KC2023 12 04.09709 02 56 52.18 +25 14 54.6          21.8 GVEX039291
     K23V17Q KC2023 12 04.11064 02 56 52.01 +25 14 53.9          22.2 GVEX039291

Observer details:
291 LPL/Spacewatch II.  Observers T. H. Bressi, M. J. Brucker, A. F. Tubbiolo.
    1.8-m f/2.7 reflector + CCD.
F52 Pan-STARRS 2, Haleakala.  Observers J. Herman, T. Lowe, P. Minguez, A.
    Schultz, I. Smith.  Measurers K. Chambers, T. de Boer, J. Fairlamb, H.
    Gao, M. Huber, C.-C. Lin, E. Magnier, Y. Ramanjooloo, R. Wainscoat, R.
    Weryk.  1.8-m Ritchey-Chretien + CCD.
I52 Steward Observatory, Mt. Lemmon Station.  Observer K. W. Wierzchos.
    Measurers E. C. Beshore, D. Fay, J. B. Fazekas, D. C. Fuls, A. R. Gibbs,
    A. D. Grauer, H. Groeller, J. K. Hogan, R. A. Kowalski, S. M. Larson, G.
    J. Leonard, D. Rankin, R. L. Seaman, F. C. Shelly, K. W. Wierzchos.  1.0-m
    prime focus + CCD.
V00 Kitt Peak-Bok.  Observer K. W. Wierzchos.  Measurers M. J. Brucker, C. E.
    Woodward, D. Fay, J. B. Fazekas, D. C. Fuls, A. R. Gibbs, H. Groeller, J.
    K. Hogan, R. A. Kowalski, S. M. Larson, C. Lejoly, G. J. Leonard, R. A.
    Mastaler, R. S. McMillan, D. Rankin, R. L. Seaman, A. Serrano, F. C.
    Shelly, K. W. Wierzchos.  2.25-m reflector + 4x4K mosaic CCD.

Orbital elements:
2023 VQ17                                                                       
Epoch 2023 Sept. 13.0 TT = JDT 2460200.5                Bell                    
M 352.67575              (2000.0)            P               Q                  
n   0.00605956     Peri.   54.57234     +0.24856961     -0.96364487             
a  29.7971746      Node    21.67192     +0.78025841     +0.13926245             
e   0.5202137      Incl.   15.38724     +0.57394248     +0.22802309             
P 163              H   10.51          G   0.15           U   8                  
Residuals in seconds of arc
231111 V00  0.0   0.1-    231120 291  0.1+  0.1-    231123 I52  0.1-  0.1+
231111 V00  0.1-  0.2+    231120 291  0.0   0.6-    231203 291  0.2-  0.2+
231111 V00  0.1-  0.1-    231120 291  0.4-  0.8-    231203 291  0.0   0.2+
231111 V00  0.2+  0.0     231121 291  0.1+  0.4-    231203 291  0.0   0.3-
231118 F52  0.3+  0.4-    231121 291  0.4+  0.2-    231204 291  0.1+  0.2-
231118 F52  0.2+  0.5-    231123 I52  0.2+  0.0     231204 291  0.3+  0.1-
231118 F52  0.2+  0.3-    231123 I52  0.3-  0.3+    231204 291  0.2+  0.2-

Ephemeris:
2023 VQ17                a,e,i = 29.80, 0.52, 15                 q = 14.2963
Date    TT    R. A. (2000) Decl.     Delta      r    Elong.  Phase     V
2023 11 04    03 03 16.2 +25 32 54  13.8161 14.7862   167.5     0.8    22.2
...
2023 11 19    02 59 58.8 +25 24 55  13.7999 14.7739   169.8     0.7    22.2
...
2023 11 27    02 58 17.0 +25 19 46  13.8196 14.7674   163.3     1.1    22.2
...
2023 12 03    02 57 04.8 +25 15 40  13.8469 14.7626   157.5     1.5    22.3
2023 12 04    02 56 53.3 +25 14 59  13.8524 14.7618   156.5     1.5    22.3
2023 12 05    02 56 41.8 +25 14 17  13.8583 14.7610   155.5     1.6    22.3
...
2023 12 11    02 55 36.5 +25 10 07  13.8993 14.7562   149.5     1.9    22.3
...
2023 12 19    02 54 19.8 +25 04 41  13.9690 14.7498   141.3     2.4    22.3
...
2024 01 03    02 52 35.5 +24 55 42  14.1396 14.7379   125.9     3.1    22.4

M. P. C. Staff               (C) Copyright 2023 MPC           M.P.E.C. 2023-X39





More information about the Iaude mailing list